Wind_Speed
17 18 18 18 18 18 18 18 18 18 18 17 17 18 19 19 19 20 20 21 22 22 22 22 21 22 22 22 21 21 21 21 20 20 20 19 18 19 19 19 19 19 19
18 19 19 19 19 19 19 19 19 19 18 18 18 19 19 19 20 20 20 21 22 22 22 22 22 23 23 23 22 22 22 21 21 20 20 20 20 20 20 21 21 20 20
19 20 20 20 20 20 20 20 19 19 19 19 20 20 20 21 21 21 22 22 22 23 23 23 22 23 23 23 23 23 23 22 22 21 21 21 21 22 22 22 22 22 22
21 21 21 21 21 21 21 20 21 21 21 21 21 21 22 22 23 23 23 24 24 24 24 24 23 24 24 24 23 23 22 22 22 22 22 22 23 23 23 23 23 23 23
22 22 22 22 22 22 22 22 22 22 22 22 22 23 23 23 24 24 25 25 25 25 25 24 24 24 24 24 23 23 23 23 23 23 23 23 24 24 24 25 25 24 24
23 23 23 23 23 24 23 23 23 23 23 23 24 24 24 24 24 25 26 26 26 26 25 24 23 23 23 23 23 23 24 24 23 23 24 24 24 25 25 25 25 25 25
24 24 24 24 24 24 24 24 24 24 24 24 24 25 25 25 25 26 26 26 26 25 25 24 23 23 23 24 24 24 24 24 24 25 25 25 25 25 26 26 26 26 25
25 25 25 25 24 24 24 25 25 25 26 25 25 25 25 25 26 26 26 27 26 25 24 24 24 23 23 24 24 24 25 25 25 25 25 25 25 25 26 26 26 26 26
25 25 26 25 26 26 26 26 26 26 26 26 25 25 26 26 27 27 27 26 26 26 25 24 25 25 25 25 25 26 26 26 26 25 26 26 27 26 26 26 26 26 26
26 26 26 26 26 27 27 27 27 26 26 26 26 26 26 27 27 27 26 26 26 26 26 26 26 26 26 26 26 26 26 26 26 26 27 27 27 27 26 26 26 27 26
27 26 26 27 27 27 27 27 27 27 26 27 27 27 27 27 27 26 26 26 26 26 27 27 27 27 26 26 26 27 27 27 27 27 28 28 28 28 27 27 27 26 26
26 26 26 27 27 27 27 27 27 26 26 27 27 27 28 27 27 26 26 26 26 26 26 26 26 26 26 27 27 27 28 27 27 27 27 28 27 27 27 27 27 27 26
27 26 27 27 27 26 27 28 28 27 27 26 26 26 27 27 26 27 27 26 26 25 24 24 25 25 25 26 26 27 26 26 27 27 27 27 27 26 26 27 27 27 26
27 27 27 27 27 28 28 28 27 26 26 25 25 25 26 26 26 26 26 26 25 24 24 24 24 25 25 25 25 25 26 26 26 26 26 26 26 26 27 27 27 26 26
27 27 27 27 27 27 27 28 27 26 26 25 25 25 26 26 26 27 26 25 24 24 24 25 25 24 25 25 25 25 25 26 26 25 25 25 25 26 26 26 26 25 25
26 26 26 27 27 28 28 28 28 27 26 26 25 25 26 26 26 27 27 26 25 25 25 25 25 25 25 25 26 26 26 26 25 25 25 26 26 26 26 26 26 26 25
27 26 26 27 27 28 28 28 28 27 26 26 26 26 27 27 27 26 26 26 26 26 26 26 26 25 25 25 26 26 26 26 26 26 26 26 25 25 25 26 25 25 25
27 27 27 27 27 27 27 27 27 27 27 27 27 27 27 27 27 27 26 26 26 26 26 25 25 25 25 25 26 26 26 26 25 25 25 25 25 25 25 25 25 25 25
27 27 27 27 27 26 26 27 27 27 27 27 26 27 27 28 27 28 28 28 27 27 25 24 24 24 24 25 25 25 25 25 25 24 24 24 24 25 25 25 25 25 25
26 26 26 26 26 25 25 26 26 26 27 27 27 27 27 28 28 28 27 26 25 24 24 24 23 23 23 24 25 25 24 23 23 22 23 23 23 24 24 24 24 24 24
25 25 25 25 24 23 24 24 25 26 26 27 27 27 27 28 27 26 26 25 24 23 23 24 23 23 23 24 24 23 23 22 21 22 22 23 23 23 24 23 23 23 23
24 24 24 23 23 23 23 24 24 25 25 26 27 27 27 27 26 25 24 24 23 23 23 22 22 23 24 24 23 22 22 21 20 21 22 22 22 21 21 22 22 21 21
23 23 23 23 23 23 24 25 25 24 24 24 25 25 24 23 23 23 23 23 22 22 22 22 22 22 22 21 21 22 22 21 21 21 21 20 20 20 20 20 20 21 22
23 23 23 24 23 23 24 24 24 24 24 25 25 24 23 22 22 22 22 21 21 21 21 21 22 22 22 22 21 21 21 21 20 20 20 19 19 19 19 20 20 20 21
22 22 23 24 24 23 23 23 24 25 26 26 25 24 23 23 22 22 21 21 21 21 21 21 20 20 20 20 19 18 18 18 18 19 19 18 18 18 19 20 21 21 21
22 22 23 24 24 24 24 24 25 25 25 26 25 24 24 23 22 22 22 22 22 22 21 21 20 21 20 19 19 18 18 18 18 19 19 18 18 18 18 20 20 21 21
Wind_Direction
298 297 298 299 300 301 301 297 294 292 292 291 290 287 285 284 284 286 287 288 288 288 287 287 288 288 288 290 290 289 289 291 291 289 289 290 290 292 290 289 291 289 286
297 296 297 297 298 299 299 297 295 293 291 290 289 289 289 288 287 287 290 289 289 288 287 287 286 287 287 287 290 290 289 289 289 288 288 288 289 291 292 289 288 289 287
295 294 295 295 295 296 297 295 294 293 292 291 289 289 289 288 289 289 290 290 289 288 287 287 287 287 287 286 287 288 289 288 287 286 285 286 288 290 291 291 289 288 287
294 293 293 293 293 293 293 293 292 291 290 289 289 290 289 288 289 289 289 290 289 289 288 286 286 287 286 285 285 286 287 287 286 285 284 285 286 289 291 292 290 288 286
294 292 292 292 292 291 292 292 291 290 290 290 289 290 291 290 289 289 289 289 288 288 289 287 287 287 286 285 285 285 286 286 285 285 285 286 287 288 290 290 290 288 285
293 291 289 290 290 291 290 291 290 290 290 290 290 291 291 291 291 291 290 289 289 289 289 288 286 285 285 285 284 284 285 286 285 285 286 287 288 288 289 289 289 289 287
290 289 288 287 288 290 291 291 289 289 289 290 290 291 293 293 292 291 291 290 289 288 287 287 287 285 285 285 284 283 284 284 285 285 286 287 288 288 289 290 291 292 290
290 289 288 288 289 289 290 291 290 289 289 289 291 291 293 293 291 289 291 290 289 288 287 286 289 285 286 287 285 284 284 284 285 286 286 286 287 288 289 290 290 290 289
289 289 289 287 287 287 289 290 290 289 288 288 289 290 292 294 293 290 289 290 288 286 285 285 286 285 285 285 284 282 282 283 285 286 286 286 286 287 287 287 287 289 290
285 287 288 287 287 288 288 289 289 286 285 286 287 289 290 291 293 292 289 289 287 284 283 284 284 283 283 283 284 283 282 283 286 287 286 286 286 286 285 285 287 288 288
285 284 286 286 286 287 288 289 288 285 284 285 286 288 289 291 291 290 291 289 288 286 284 283 283 283 283 283 283 283 282 283 284 285 285 285 286 286 286 286 287 288 289
287 285 286 286 286 287 288 288 286 285 285 285 286 287 288 289 289 288 288 288 288 287 286 285 285 285 284 284 285 285 284 283 283 284 284 284 286 286 286 287 288 288 288
288 287 288 287 286 287 288 288 287 286 285 286 288 290 291 290 290 289 289 289 289 288 289 287 286 286 286 288 289 289 288 286 287 286 285 286 286 287 288 288 289 288 288
286 287 289 288 286 286 287 287 286 286 286 286 288 290 291 292 291 290 290 289 287 286 289 289 287 287 287 288 288 288 289 287 286 286 284 284 285 285 286 287 287 286 286
286 288 289 288 288 289 288 286 284 287 289 287 288 288 290 292 292 290 288 286 286 288 289 288 286 285 285 286 286 287 288 289 287 286 286 286 286 287 287 286 286 286 286
287 288 288 288 288 288 288 286 285 286 287 288 287 288 290 292 293 291 287 286 286 286 286 286 285 284 285 287 287 287 288 289 286 285 286 288 288 289 288 287 287 286 286
287 289 291 291 291 291 290 288 287 288 288 287 286 286 288 290 292 292 290 288 285 284 285 286 285 285 286 286 287 288 289 290 288 286 287 288 288 288 288 288 287 287 288
289 290 291 290 290 290 291 290 289 288 287 286 286 286 288 289 290 290 290 288 286 286 286 284 285 285 286 287 288 289 290 291 290 288 286 286 287 288 288 287 287 287 287
291 292 291 290 290 291 290 291 291 291 290 289 290 289 288 289 289 290 289 287 287 287 285 284 284 286 287 288 288 288 289 291 289 288 287 285 286 288 289 288 288 287 287
291 293 293 291 290 292 293 292 293 293 293 292 291 290 289 290 290 291 291 289 289 289 286 285 287 288 289 290 290 289 290 291 290 289 289 287 285 286 288 290 288 287 288
288 290 292 292 292 292 293 294 294 294 294 294 293 292 291 290 290 290 291 291 289 289 287 286 285 286 288 290 292 291 291 291 290 290 291 289 287 288 289 291 291 288 288
286 289 291 291 291 293 296 297 296 296 297 297 296 294 292 292 292 292 293 292 290 288 287 286 285 285 287 289 290 292 293 292 290 290 293 293 291 290 291 291 291 292 290
287 289 291 293 291 290 292 295 298 299 300 300 299 298 298 298 296 295 294 292 291 288 288 286 286 287 288 291 290 290 289 289 290 290 293 295 293 291 290 292 292 291 292
287 290 294 295 299 297 295 296 297 298 300 301 302 301 299 298 298 297 294 293 292 292 290 288 288 289 290 290 290 288 288 288 288 289 291 293 293 292 292 292 292 293 295
292 293 294 296 297 299 300 300 299 300 299 298 297 297 297 296 295 295 293 291 292 292 289 288 290 290 289 288 288 288 287 289 290 291 292 292 292 291 292 293 294 296 298
292 294 296 299 300 300 301 301 299 298 299 299 297 295 295 294 292 292 293 292 291 288 287 288 289 290 289 287 287 288 288 288 291 293 293 291 292 293 295 297 298 299 301
Height
5866 5864 5863 5862 5861 5859 5858 5857 5856 5856 5855 5854 5853 5853 5852 5851 5850 5849 5849 5848 5847 5847 5846 5845 5845 5844 5843 5842 5841 5840 5839 5839 5838 5837 5837 5836 5835 5835 5834 5832 5831 5830 5830
5861 5860 5859 5858 5856 5855 5854 5853 5852 5851 5850 5849 5849 5848 5846 5846 5845 5844 5843 5842 5841 5841 5840 5839 5838 5838 5837 5836 5835 5834 5833 5833 5832 5832 5831 5830 5830 5829 5828 5827 5825 5825 5824
5857 5856 5854 5853 5852 5850 5849 5848 5847 5846 5845 5844 5843 5842 5841 5840 5839 5838 5837 5836 5835 5834 5834 5832 5832 5831 5831 5830 5829 5828 5828 5827 5826 5826 5825 5825 5824 5823 5822 5821 5820 5819 5818
5852 5851 5849 5848 5847 5845 5844 5843 5841 5840 5839 5838 5837 5836 5835 5834 5833 5832 5831 5830 5829 5828 5827 5826 5826 5825 5824 5823 5823 5822 5821 5821 5820 5819 5819 5818 5818 5817 5816 5815 5814 5812 5811
5846 5845 5844 5842 5841 5839 5838 5837 5836 5834 5833 5832 5831 5830 5829 5828 5827 5826 5825 5823 5822 5821 5820 5820 5819 5818 5818 5817 5816 5816 5815 5814 5813 5813 5812 5812 5811 5810 5809 5808 5807 5805 5804
5841 5839 5838 5836 5835 5833 5832 5831 5829 5828 5827 5826 5825 5823 5822 5821 5820 5819 5818 5816 5815 5814 5814 5813 5812 5812 5811 5810 5810 5809 5809 5808 5807 5806 5806 5805 5804 5803 5801 5800 5799 5798 5797
5835 5833 5831 5830 5828 5827 5825 5824 5823 5822 5821 5819 5818 5817 5815 5814 5813 5811 5810 5809 5808 5807 5806 5806 5805 5805 5804 5804 5803 5802 5802 5801 5800 5800 5799 5798 5797 5796 5794 5793 5791 5790 5789
5828 5827 5825 5823 5822 5820 5819 5817 5816 5815 5814 5812 5811 5810 5808 5807 5805 5804 5803 5801 5800 5799 5799 5799 5798 5797 5797 5797 5796 5795 5795 5794 5793 5793 5792 5791 5790 5788 5787 5786 5784 5783 5782
5821 5820 5818 5817 5815 5814 5812 5811 5809 5808 5806 5805 5804 5803 5801 5800 5798 5796 5795 5794 5793 5792 5792 5792 5791 5790 5790 5789 5789 5788 5788 5787 5786 5785 5784 5783 5782 5781 5779 5778 5777 5776 5775
5814 5813 5811 5809 5808 5807 5805 5803 5802 5800 5799 5798 5797 5796 5794 5792 5790 5789 5787 5786 5785 5785 5785 5784 5784 5783 5783 5782 5781 5780 5780 5780 5778 5777 5777 5775 5774 5773 5772 5770 5769 5768 5766
5807 5805 5804 5802 5801 5799 5798 5796 5794 5793 5792 5791 5790 5788 5787 5785 5783 5781 5780 5779 5778 5778 5777 5777 5776 5776 5775 5774 5773 5773 5772 5771 5770 5770 5769 5768 5766 5765 5764 5762 5761 5760 5759
5800 5799 5797 5795 5793 5792 5790 5789 5787 5786 5785 5783 5782 5781 5779 5777 5776 5774 5773 5772 5771 5770 5770 5769 5769 5768 5767 5767 5766 5765 5764 5763 5762 5761 5761 5760 5759 5757 5756 5755 5754 5752 5751
5794 5792 5790 5788 5787 5785 5783 5781 5779 5778 5777 5776 5775 5773 5772 5770 5768 5767 5766 5764 5763 5763 5762 5762 5761 5760 5760 5759 5758 5757 5756 5755 5754 5753 5752 5751 5751 5749 5748 5747 5746 5745 5744
5787 5785 5784 5782 5780 5778 5776 5775 5773 5771 5770 5769 5768 5767 5765 5763 5761 5760 5759 5758 5757 5756 5756 5755 5754 5753 5752 5752 5751 5750 5748 5747 5746 5745 5744 5744 5743 5742 5741 5740 5739 5737 5736
5780 5778 5776 5775 5773 5771 5769 5767 5766 5765 5763 5762 5761 5760 5758 5757 5755 5753 5752 5751 5750 5750 5749 5748 5747 5746 5745 5744 5743 5742 5741 5740 5738 5737 5737 5736 5735 5734 5733 5732 5731 5729 5728
5773 5771 5769 5768 5766 5764 5762 5760 5759 5758 5756 5755 5754 5753 5752 5750 5748 5746 5745 5744 5743 5742 5741 5741 5740 5739 5738 5737 5736 5735 5733 5732 5731 5730 5729 5728 5727 5726 5725 5724 5722 5721 5720
5766 5764 5762 5761 5758 5757 5755 5753 5752 5751 5749 5748 5747 5746 5745 5743 5742 5740 5738 5737 5736 5735 5735 5734 5732 5731 5730 5729 5728 5727 5725 5724 5723 5722 5721 5721 5720 5718 5717 5716 5715 5714 5712
5758 5757 5755 5753 5752 5750 5748 5746 5745 5743 5742 5741 5740 5739 5737 5736 5734 5733 5731 5730 5729 5728 5727 5726 5725 5724 5723 5722 5720 5719 5718 5717 5715 5714 5713 5713 5712 5711 5709 5708 5707 5706 5704
5751 5749 5748 5746 5744 5742 5740 5739 5737 5736 5735 5734 5732 5731 5730 5728 5727 5725 5724 5723 5722 5721 5719 5718 5718 5717 5715 5714 5713 5712 5710 5709 5708 5706 5706 5705 5704 5703 5701 5700 5699 5697 5696
5744 5743 5741 5739 5736 5734 5732 5731 5730 5728 5727 5726 5725 5724 5723 5721 5719 5718 5716 5715 5714 5713 5712 5712 5711 5709 5708 5707 5705 5704 5703 5701 5700 5699 5698 5697 5696 5695 5694 5692 5690 5689 5688
5737 5735 5733 5731 5729 5727 5726 5724 5723 5722 5720 5719 5718 5716 5715 5713 5712 5710 5709 5708 5707 5706 5705 5704 5704 5703 5701 5700 5699 5697 5696 5695 5693 5692 5691 5690 5688 5687 5686 5684 5682 5681 5680
5731 5729 5727 5725 5723 5721 5719 5718 5716 5715 5713 5712 5710 5709 5707 5706 5704 5703 5702 5701 5700 5699 5698 5697 5696 5695 5695 5693 5692 5691 5689 5688 5687 5686 5685 5683 5681 5680 5679 5677 5675 5674 5672
5725 5723 5721 5719 5716 5715 5713 5712 5710 5708 5707 5705 5704 5702 5700 5699 5697 5696 5695 5694 5693 5692 5691 5690 5689 5688 5687 5686 5685 5684 5683 5682 5681 5679 5678 5676 5675 5673 5672 5671 5669 5668 5666
5719 5717 5715 5713 5710 5709 5707 5705 5703 5702 5700 5699 5697 5695 5694 5693 5691 5690 5688 5688 5686 5685 5684 5684 5683 5682 5681 5680 5679 5678 5677 5675 5674 5673 5672 5670 5668 5667 5666 5665 5663 5661 5659
5713 5711 5709 5707 5705 5703 5701 5699 5698 5696 5694 5692 5691 5689 5688 5686 5685 5684 5682 5681 5681 5679 5678 5677 5676 5675 5674 5673 5672 5671 5670 5669 5668 5667 5666 5664 5663 5661 5660 5659 5657 5655 5653
5708 5706 5704 5702 5699 5697 5696 5694 5692 5690 5688 5686 5684 5682 5681 5680 5678 5677 5676 5675 5674 5673 5672 5671 5670 5669 5668 5667 5666 5665 5664 5663 5662 5661 5659 5658 5657 5656 5654 5652 5651 5649 5647